Home   Weather   Bridgewater   Past weeks
Flag for USA

Past Weather in Bridgewater, Massachusetts, USA — Yesterday and Last 2 Weeks

Now
66 °F

Fog.


Feels Like: 66 °F
Forecast: 77 / 63 °F
Wind: No wind

Location: Taunton Municipal Airport

Current Time: Jun 17, 2019 at 1:15:40 am

Latest Report: Jun 17, 2019 at 12:08 am


Visibility: 4 mi

Pressure: 29.82 "Hg

Humidity: 90%

Dew Point: 63 °F

Location of BridgewaterLocation

Past Weather in Bridgewater — Graph

°F

Bridgewater Temperature Yesterday

Maximum temperature yesterday: 73 °F (at 1:52 pm)
Minimum temperature yesterday: 65 °F (at 4:52 am)
Average temperature yesterday: 68 °F

High & Low Weather Summary for the Past Weeks

 TemperatureHumidityPressure
High81 °F (Jun 7, 1:52 pm)93% (Jun 2, 4:52 am)30.36 "Hg (Jun 2, 4:52 am)
Low40 °F (Jun 4, 4:52 am)21% (Jun 3, 5:52 pm)29.64 "Hg (Jun 2, 5:52 pm)
Average64 °F70%29.93 "Hg
* Reported Jun 2 12:52 am — Jun 17 12:08 am, Bridgewater. Weather by CustomWeather, © 2019

Note: Actual official high and low records may vary slightly from our data, if they occured in-between our weather recording intervals... More about our weather records

Advertising

Bridgewater Weather History for the Previous 24 Hours

Scroll right to see more
 ConditionsComfort  
Time TempWeatherWind HumidityBarometerVisibility
12:08 am
Mon, Jun 17
66 °FFog.No wind90%29.82 "Hg4 mi
11:20 pm
Sun, Jun 16
66 °FFog.No wind90%29.82 "Hg4 mi
10:19 pm66 °FFog.No wind90%29.82 "Hg5 mi
9:52 pm66 °FFog.No wind90%29.82 "Hg6 mi
9:01 pm66 °FMostly cloudy.3 mph90%29.81 "Hg7 mi
7:52 pm66 °FLight rain. Fog.5 mph90%29.81 "Hg2 mi
7:22 pm66 °FMore clouds than sun.3 mph90%29.82 "Hg7 mi
7:00 pm67 °FMostly cloudy.3 mph87%29.82 "Hg7 mi
5:52 pm68 °FOvercast.6 mph82%29.81 "Hg10 mi
5:20 pm68 °FMore clouds than sun.8 mph82%29.82 "Hg10 mi
4:41 pm69 °FMostly cloudy.8 mph79%29.84 "Hg10 mi
3:52 pm70 °FOvercast.6 mph76%29.85 "Hg10 mi
2:52 pm72 °FPassing clouds.7 mph73%29.85 "Hg10 mi
1:52 pm73 °FPassing clouds.6 mph71%29.86 "Hg10 mi
12:52 pm70 °FPassing clouds.5 mph79%29.88 "Hg10 mi
11:52 am70 °FPartly sunny.6 mph79%29.89 "Hg10 mi
10:52 am68 °FMore clouds than sun.6 mph82%29.90 "Hg10 mi
9:52 am69 °FOvercast.7 mph79%29.90 "Hg10 mi
8:52 am67 °FOvercast.5 mph85%29.91 "Hg10 mi
7:52 am66 °FOvercast.3 mph84%29.92 "Hg10 mi
6:52 am65 °FOvercast.6 mph87%29.91 "Hg10 mi
5:52 am65 °FOvercast.6 mph87%29.91 "Hg10 mi
4:52 am65 °FLight rain. Mostly cloudy.5 mph85%29.91 "Hg6 mi
3:52 am68 °FLight rain. Passing clouds.8 mph68%29.92 "Hg9 mi
2:52 am68 °FPassing clouds.7 mph65%29.90 "Hg10 mi
1:52 am67 °FPassing clouds.7 mph66%29.90 "Hg10 mi
Weather by CustomWeather, © 2019

See weather overview